CDT,Max TemperatureF,Mean TemperatureF,Min TemperatureF,Max Dew PointF,MeanDew PointF,Min DewpointF,Max Humidity, Mean Humidity, Min Humidity, Max Sea Level PressureIn, Mean Sea Level PressureIn, Min Sea Level PressureIn, Max VisibilityMiles, Mean VisibilityMiles, Min VisibilityMiles, Max Wind SpeedMPH, Mean Wind SpeedMPH, Max Gust SpeedMPH,PrecipitationIn, CloudCover, Events, WindDirDegrees
2012-9-1,91,78,64,55,48,37,57,37,20,30.07,30.03,29.97,10,10,10,10,6,,0.00,0,,91
2012-9-2,93,78,62,55,50,39,72,41,15,30.00,29.93,29.84,10,10,10,13,6,18,0.00,0,,167
2012-9-3,87,78,69,64,58,39,78,53,18,29.96,29.91,29.87,10,10,10,9,4,29,0.00,0,,138
2012-9-4,96,81,66,66,51,12,73,43,4,29.96,29.84,29.71,10,10,5,24,6,41,0.35,1,Rain,127
2012-9-5,82,72,60,57,39,3,77,41,5,29.98,29.89,29.77,10,10,10,16,9,24,0.00,0,,4
2012-9-6,87,71,55,57,29,-27,68,34,4,30.02,29.91,29.79,10,10,10,15,4,23,0.00,1,Rain,141
2012-9-7,73,65,57,59,42,19,78,48,14,30.13,30.00,29.81,10,10,2,16,9,23,0.31,2,Rain,4
2012-9-8,84,64,44,45,25,-17,76,38,4,30.13,30.06,29.93,10,10,10,24,9,34,0.00,0,,311
2012-9-9,77,64,51,46,33,12,71,38,9,30.25,30.17,30.10,10,10,10,9,6,16,0.00,0,,5
2012-9-10,87,70,53,46,30,7,67,31,5,30.10,29.96,29.83,10,10,10,25,11,34,0.00,0,,181
2012-9-11,96,81,66,43,26,-24,43,22,4,29.89,29.81,29.76,10,10,10,29,17,37,0.00,0,,194
2012-9-12,75,65,55,50,36,18,82,45,14,30.30,30.15,29.89,10,10,10,15,7,23,0.22,4,Rain,27
2012-9-13,77,62,48,52,36,1,88,50,6,30.40,30.33,30.30,10,7,0,14,3,18,0.00,2,,238
2012-9-14,82,66,50,45,26,-18,71,35,4,30.32,30.27,30.21,10,10,10,12,6,16,0.00,0,,200
2012-9-15,82,66,51,45,26,-29,67,35,4,30.22,30.14,30.04,10,10,10,23,11,29,0.00,0,,194
2012-9-16,80,68,55,55,49,30,82,55,18,30.04,29.97,29.89,10,8,0,14,7,20,0.00,1,,192
2012-9-17,68,59,48,45,29,7,76,39,9,30.07,30.02,29.94,10,10,10,15,9,26,0.07,3,Rain,8
2012-9-18,66,52,37,36,20,-8,81,40,5,30.10,30.02,29.87,10,10,10,12,5,,0.00,1,,252
2012-9-19,84,68,48,43,29,-11,59,32,4,29.98,29.84,29.76,10,10,10,30,12,40,0.00,0,,269
2012-9-20,66,54,42,34,27,25,57,36,21,30.04,29.98,29.91,10,10,7,17,6,23,0.00,0,,302
2012-9-21,69,60,51,37,34,28,58,40,21,29.96,29.87,29.80,10,10,10,22,6,34,0.00,2,,21
2012-9-22,59,44,30,34,25,18,80,46,23,30.29,30.21,29.98,10,10,10,17,10,25,0.00,0,,348
2012-9-23,62,46,30,28,24,19,86,42,20,30.36,30.28,30.18,10,10,10,5,1,,0.00,0,,104
2012-9-24,77,59,41,41,33,25,71,42,21,30.18,29.98,29.84,10,10,7,20,7,24,0.00,0,,203
2012-9-25,80,62,44,43,37,32,82,47,17,29.95,29.87,29.82,10,10,7,7,3,,0.00,0,,45
2012-9-26,69,53,37,34,27,18,75,36,14,30.18,30.09,29.97,10,10,5,10,5,,0.00,0,,43
2012-9-27,71,54,37,36,28,18,81,40,13,30.24,30.19,30.14,10,10,7,7,4,,0.00,0,,63
2012-9-28,75,58,42,36,29,21,70,37,13,30.22,30.17,30.12,10,10,7,7,3,,0.00,0,,105
2012-9-29,80,63,46,39,32,27,58,34,16,30.18,30.11,30.04,10,10,7,8,1,,0.00,0,,204
2012-9-30,78,63,48,41,37,36,66,40,21,30.05,29.98,29.92,10,10,10,7,1,,0.00,0,,234